Time,TemperatureF,DewpointF,PressureIn,WindDirection,WindDirectionDegrees,WindSpeedMPH,WindSpeedGustMPH,Humidity,HourlyPrecipIn,Conditions,Clouds,dailyrainin,SolarRadiationWatts/m^2,SoftwareType,DateUTC
2013-08-09 00:03:00,77.7,71.8,30.06,SW,222,0.0,0.0,82,0.00,,CLR,0.00,0.00,VWS V14.00,2013-08-09 04:03:00,
2013-08-09 00:08:00,77.4,71.8,30.06,SW,222,0.0,0.0,83,0.00,,CLR,0.00,0.00,VWS V14.00,2013-08-09 04:08:00,
2013-08-09 00:13:00,77.4,71.8,30.06,SSW,209,0.0,0.0,83,0.00,,CLR,0.00,0.00,VWS V14.00,2013-08-09 04:13:00,
2013-08-09 00:19:00,77.2,72.0,30.06,SSW,208,0.0,0.0,84,0.00,,CLR,0.00,0.00,VWS V14.00,2013-08-09 04:19:00,
2013-08-09 00:24:00,77.2,72.0,30.06,SSW,206,0.0,0.0,84,0.00,,CLR,0.00,0.00,VWS V14.00,2013-08-09 04:24:00,
2013-08-09 00:29:00,77.2,72.3,30.06,SW,226,0.0,0.0,85,0.00,,CLR,0.00,0.00,VWS V14.00,2013-08-09 04:29:00,
2013-08-09 00:34:00,77.0,72.2,30.05,SSW,210,0.0,0.0,85,0.00,,CLR,0.00,0.00,VWS V14.00,2013-08-09 04:34:00,
2013-08-09 00:39:00,77.0,72.5,30.05,WSW,239,0.0,0.0,86,0.00,,CLR,0.00,0.00,VWS V14.00,2013-08-09 04:39:00,
2013-08-09 00:44:00,77.0,72.5,30.05,SW,215,0.0,0.0,86,0.00,,CLR,0.00,0.00,VWS V14.00,2013-08-09 04:44:00,
2013-08-09 00:49:00,76.8,72.3,30.05,SW,223,0.0,0.0,86,0.00,,CLR,0.00,0.00,VWS V14.00,2013-08-09 04:49:00,
2013-08-09 00:54:00,77.0,72.8,30.05,SW,217,0.0,0.0,87,0.00,,CLR,0.00,0.00,VWS V14.00,2013-08-09 04:54:00,
2013-08-09 00:59:00,76.8,72.6,30.05,SW,217,0.0,0.0,87,0.00,,CLR,0.00,0.00,VWS V14.00,2013-08-09 04:59:00,
2013-08-09 01:04:00,76.8,72.6,30.05,SW,227,0.0,0.0,87,0.00,,CLR,0.00,0.00,VWS V14.00,2013-08-09 05:04:00,
2013-08-09 01:09:00,76.8,73.0,30.05,SW,234,0.0,0.0,88,0.00,,CLR,0.00,0.00,VWS V14.00,2013-08-09 05:09:00,
2013-08-09 01:14:00,76.8,73.0,30.05,SW,229,0.0,0.0,88,0.00,,CLR,0.00,0.00,VWS V14.00,2013-08-09 05:14:00,
2013-08-09 01:19:00,76.8,73.0,30.06,South,188,0.0,0.0,88,0.00,,CLR,0.00,0.00,VWS V14.00,2013-08-09 05:19:00,
2013-08-09 01:24:00,76.8,73.0,30.06,SSW,198,0.0,0.0,88,0.00,,CLR,0.00,0.00,VWS V14.00,2013-08-09 05:24:00,
2013-08-09 01:29:00,76.7,72.9,30.06,WSW,248,0.0,0.0,88,0.00,,CLR,0.00,0.00,VWS V14.00,2013-08-09 05:29:00,
2013-08-09 01:34:00,76.7,72.9,30.05,WSW,248,0.0,0.0,88,0.00,,CLR,0.00,0.00,VWS V14.00,2013-08-09 05:34:00,
2013-08-09 01:39:00,76.7,72.9,30.05,SW,219,0.0,0.0,88,0.00,,CLR,0.00,0.00,VWS V14.00,2013-08-09 05:39:00,
2013-08-09 01:44:00,76.7,72.9,30.05,South,191,0.0,0.0,88,0.00,,CLR,0.00,0.00,VWS V14.00,2013-08-09 05:44:00,
2013-08-09 01:49:00,76.5,73.0,30.04,SSW,210,0.0,0.0,89,0.00,,CLR,0.00,0.00,VWS V14.00,2013-08-09 05:49:00,
2013-08-09 01:54:00,76.5,73.0,30.04,WSW,240,0.0,0.0,89,0.00,,CLR,0.00,0.00,VWS V14.00,2013-08-09 05:54:00,
2013-08-09 01:59:00,76.5,73.0,30.04,SW,220,0.0,0.0,89,0.00,,CLR,0.00,0.00,VWS V14.00,2013-08-09 05:59:00,
2013-08-09 02:04:00,76.5,73.0,30.04,SSW,203,0.0,0.0,89,0.00,,CLR,0.00,0.00,VWS V14.00,2013-08-09 06:04:00,
2013-08-09 02:09:00,76.3,72.8,30.04,WSW,239,0.0,0.0,89,0.00,,CLR,0.00,0.00,VWS V14.00,2013-08-09 06:09:00,
2013-08-09 02:14:00,76.3,72.8,30.04,WSW,239,0.0,0.0,89,0.00,,CLR,0.00,0.00,VWS V14.00,2013-08-09 06:14:00,
2013-08-09 02:19:00,76.3,73.2,30.03,SW,220,0.0,0.0,90,0.00,,CLR,0.00,0.00,VWS V14.00,2013-08-09 06:19:00,
2013-08-09 02:24:00,76.3,73.2,30.03,SW,232,0.0,0.0,90,0.00,,CLR,0.00,0.00,VWS V14.00,2013-08-09 06:24:00,
2013-08-09 02:29:00,76.3,73.2,30.03,SW,230,0.0,0.0,90,0.00,,CLR,0.00,0.00,VWS V14.00,2013-08-09 06:29:00,
2013-08-09 02:34:00,76.3,73.2,30.03,SSW,203,0.0,0.0,90,0.00,,CLR,0.00,0.00,VWS V14.00,2013-08-09 06:34:00,
2013-08-09 02:39:00,76.3,73.2,30.03,SW,224,0.0,0.0,90,0.00,,CLR,0.00,0.00,VWS V14.00,2013-08-09 06:39:00,
2013-08-09 02:44:00,76.3,73.2,30.03,West,260,0.0,0.0,90,0.00,,CLR,0.00,0.00,VWS V14.00,2013-08-09 06:44:00,
2013-08-09 02:49:00,76.1,73.0,30.03,WSW,240,0.0,0.0,90,0.00,,CLR,0.00,0.00,VWS V14.00,2013-08-09 06:49:00,
2013-08-09 02:54:00,76.1,73.0,30.03,WSW,247,0.0,0.0,90,0.00,,CLR,0.00,0.00,VWS V14.00,2013-08-09 06:54:00,
2013-08-09 02:59:00,76.1,73.3,30.03,WSW,247,0.0,0.0,91,0.00,,CLR,0.00,0.00,VWS V14.00,2013-08-09 06:59:00,
2013-08-09 03:04:00,76.1,73.3,30.03,SW,220,0.0,0.0,91,0.00,,CLR,0.00,0.00,VWS V14.00,2013-08-09 07:04:00,
2013-08-09 03:09:00,76.0,73.2,30.03,SW,220,0.0,0.0,91,0.00,,CLR,0.00,0.00,VWS V14.00,2013-08-09 07:09:00,
2013-08-09 03:14:00,76.0,73.2,30.03,SSW,196,0.0,0.0,91,0.00,,CLR,0.00,0.00,VWS V14.00,2013-08-09 07:14:00,
2013-08-09 03:19:00,76.0,73.2,30.04,SW,215,0.0,0.0,91,0.00,,CLR,0.00,0.00,VWS V14.00,2013-08-09 07:19:00,
2013-08-09 03:24:00,76.0,73.2,30.04,WSW,257,0.0,0.0,91,0.00,,CLR,0.00,0.00,VWS V14.00,2013-08-09 07:24:00,
2013-08-09 03:29:00,76.0,73.2,30.04,WSW,257,0.0,0.0,91,0.00,,CLR,0.00,0.00,VWS V14.00,2013-08-09 07:29:00,
2013-08-09 03:34:00,75.8,73.0,30.04,WSW,257,0.0,0.0,91,0.00,,CLR,0.00,0.00,VWS V14.00,2013-08-09 07:34:00,
2013-08-09 03:39:00,75.8,73.0,30.04,WSW,254,0.0,0.0,91,0.00,,CLR,0.00,0.00,VWS V14.00,2013-08-09 07:39:00,
2013-08-09 03:44:00,75.8,73.0,30.04,SW,219,0.0,0.0,91,0.00,,CLR,0.00,0.00,VWS V14.00,2013-08-09 07:44:00,
2013-08-09 03:49:00,75.6,73.1,30.05,SW,220,0.0,0.0,92,0.00,,CLR,0.00,0.00,VWS V14.00,2013-08-09 07:49:00,
2013-08-09 03:54:00,75.6,73.1,30.05,SW,223,0.0,0.0,92,0.00,,CLR,0.00,0.00,VWS V14.00,2013-08-09 07:54:00,
2013-08-09 03:59:00,75.6,73.1,30.05,SSW,212,0.0,0.0,92,0.00,,CLR,0.00,0.00,VWS V14.00,2013-08-09 07:59:00,
2013-08-09 04:04:00,75.6,73.1,30.05,SW,215,0.0,0.0,92,0.00,,CLR,0.00,0.00,VWS V14.00,2013-08-09 08:04:00,
2013-08-09 04:09:00,75.4,72.9,30.05,West,260,0.0,0.0,92,0.00,,CLR,0.00,0.00,VWS V14.00,2013-08-09 08:09:00,
2013-08-09 04:14:00,75.4,72.9,30.05,West,260,0.0,0.0,92,0.00,,CLR,0.00,0.00,VWS V14.00,2013-08-09 08:14:00,
2013-08-09 04:19:00,75.4,72.9,30.05,West,260,0.0,0.0,92,0.00,,CLR,0.00,0.00,VWS V14.00,2013-08-09 08:19:00,
2013-08-09 04:24:00,75.4,72.9,30.05,WSW,239,0.0,0.0,92,0.00,,CLR,0.00,0.00,VWS V14.00,2013-08-09 08:24:00,
2013-08-09 04:29:00,75.4,72.9,30.05,WSW,239,0.0,0.0,92,0.00,,CLR,0.00,0.00,VWS V14.00,2013-08-09 08:29:00,
2013-08-09 04:34:00,75.3,72.8,30.05,WSW,239,0.0,0.0,92,0.00,,CLR,0.00,0.00,VWS V14.00,2013-08-09 08:34:00,
2013-08-09 04:39:00,75.3,72.8,30.05,WSW,239,0.0,0.0,92,0.00,,CLR,0.00,0.00,VWS V14.00,2013-08-09 08:39:00,
2013-08-09 04:44:00,75.3,72.8,30.05,WSW,239,0.0,0.0,92,0.00,,CLR,0.00,0.00,VWS V14.00,2013-08-09 08:44:00,
2013-08-09 04:49:00,75.1,72.9,30.05,WSW,239,0.0,0.0,93,0.00,,CLR,0.00,0.00,VWS V14.00,2013-08-09 08:49:00,
2013-08-09 04:54:00,75.1,72.9,30.05,WSW,239,0.0,0.0,93,0.00,,CLR,0.00,0.00,VWS V14.00,2013-08-09 08:54:00,
2013-08-09 04:59:00,75.1,72.9,30.05,WSW,239,0.0,0.0,93,0.00,,CLR,0.00,0.00,VWS V14.00,2013-08-09 08:59:00,
2013-08-09 05:04:00,75.1,72.9,30.05,WSW,239,0.0,0.0,93,0.00,,,0.00,0.00,VWS V14.00,2013-08-09 09:04:00,
2013-08-09 05:09:00,74.9,72.7,30.05,WSW,239,0.0,0.0,93,0.00,,,0.00,0.00,VWS V14.00,2013-08-09 09:09:00,
2013-08-09 05:14:00,75.1,72.9,30.05,WSW,239,0.0,0.0,93,0.00,,,0.00,0.00,VWS V14.00,2013-08-09 09:14:00,
2013-08-09 05:19:00,75.1,72.9,30.06,WSW,239,0.0,0.0,93,0.00,,,0.00,0.00,VWS V14.00,2013-08-09 09:19:00,
2013-08-09 05:24:00,75.1,72.9,30.06,WSW,239,0.0,0.0,93,0.00,,,0.00,0.00,VWS V14.00,2013-08-09 09:24:00,
2013-08-09 05:29:00,75.1,72.9,30.06,WSW,239,0.0,0.0,93,0.00,,,0.00,0.00,VWS V14.00,2013-08-09 09:29:00,
2013-08-09 05:34:00,74.9,72.7,30.06,WSW,239,0.0,0.0,93,0.00,,OVC011,0.00,0.00,VWS V14.00,2013-08-09 09:34:00,
2013-08-09 05:39:00,74.9,72.7,30.06,WSW,239,0.0,0.0,93,0.00,,OVC011,0.00,0.00,VWS V14.00,2013-08-09 09:39:00,
2013-08-09 05:44:00,74.9,73.1,30.06,WSW,239,0.0,0.0,94,0.00,,OVC011,0.00,0.00,VWS V14.00,2013-08-09 09:44:00,
2013-08-09 05:49:00,74.9,73.1,30.07,WSW,239,0.0,0.0,94,0.00,,OVC011,0.00,0.00,VWS V14.00,2013-08-09 09:49:00,
2013-08-09 05:54:00,74.9,73.1,30.07,WSW,239,0.0,0.0,94,0.00,,OVC011,0.00,0.00,VWS V14.00,2013-08-09 09:54:00,
2013-08-09 05:59:00,75.1,73.3,30.07,WSW,239,0.0,0.0,94,0.00,,OVC011,0.00,0.00,VWS V14.00,2013-08-09 09:59:00,
2013-08-09 06:04:00,75.1,73.3,30.07,WSW,239,0.0,0.0,94,0.00,,OVC009,0.00,0.00,VWS V14.00,2013-08-09 10:04:00,
2013-08-09 06:09:00,75.3,73.5,30.07,WSW,239,0.0,0.0,94,0.00,,OVC009,0.00,0.00,VWS V14.00,2013-08-09 10:09:00,
2013-08-09 06:14:00,75.3,73.5,30.07,WSW,237,0.0,0.0,94,0.00,,OVC009,0.00,0.00,VWS V14.00,2013-08-09 10:14:00,
2013-08-09 06:19:00,75.3,73.5,30.08,WSW,237,0.0,0.0,94,0.00,,OVC009,0.00,0.00,VWS V14.00,2013-08-09 10:19:00,
2013-08-09 06:24:00,75.3,73.5,30.08,WSW,237,0.0,0.0,94,0.00,,OVC009,0.00,0.00,VWS V14.00,2013-08-09 10:24:00,
2013-08-09 06:29:00,75.3,73.5,30.08,WSW,237,0.0,0.0,94,0.00,,OVC009,0.00,0.00,VWS V14.00,2013-08-09 10:29:00,
2013-08-09 06:34:00,75.3,73.5,30.08,WSW,237,0.0,0.0,94,0.00,,OVC011,0.00,0.00,VWS V14.00,2013-08-09 10:34:00,
2013-08-09 06:39:00,75.3,73.5,30.08,WSW,237,0.0,0.0,94,0.00,,OVC011,0.00,0.00,VWS V14.00,2013-08-09 10:39:00,
2013-08-09 06:44:00,75.3,73.5,30.08,WSW,237,0.0,0.0,94,0.00,,OVC011,0.00,5.00,VWS V14.00,2013-08-09 10:44:00,
2013-08-09 06:49:00,75.3,73.5,30.08,WSW,237,0.0,0.0,94,0.00,,OVC011,0.00,7.00,VWS V14.00,2013-08-09 10:49:00,
2013-08-09 06:54:00,75.3,73.5,30.08,SW,227,0.0,0.0,94,0.00,,OVC011,0.00,9.00,VWS V14.00,2013-08-09 10:54:00,
2013-08-09 06:59:00,75.3,73.5,30.08,SW,227,0.0,0.0,94,0.00,,OVC011,0.00,12.00,VWS V14.00,2013-08-09 10:59:00,
2013-08-09 07:04:00,75.3,73.5,30.08,SW,227,0.0,0.0,94,0.00,,,0.00,14.00,VWS V14.00,2013-08-09 11:04:00,
2013-08-09 07:09:00,75.3,73.5,30.08,SW,227,0.0,0.0,94,0.00,,,0.00,21.00,VWS V14.00,2013-08-09 11:09:00,
2013-08-09 07:14:00,75.3,73.5,30.08,SW,227,0.0,0.0,94,0.00,,,0.00,28.00,VWS V14.00,2013-08-09 11:14:00,
2013-08-09 07:19:00,75.3,73.8,30.08,WSW,250,0.0,0.0,95,0.00,,,0.00,30.00,VWS V14.00,2013-08-09 11:19:00,
2013-08-09 07:24:00,75.3,73.8,30.08,WSW,246,0.0,0.0,95,0.00,,,0.00,30.00,VWS V14.00,2013-08-09 11:24:00,
2013-08-09 07:29:00,75.3,73.8,30.08,WSW,241,0.0,0.0,95,0.00,,,0.00,33.00,VWS V14.00,2013-08-09 11:29:00,
2013-08-09 07:34:00,75.3,73.8,30.08,WSW,244,0.0,0.0,95,0.00,,,0.00,39.00,VWS V14.00,2013-08-09 11:34:00,
2013-08-09 07:39:00,75.3,73.8,30.08,SSW,212,0.0,0.0,95,0.00,,,0.00,40.00,VWS V14.00,2013-08-09 11:39:00,
2013-08-09 07:44:00,75.4,73.9,30.08,SW,219,0.0,0.0,95,0.00,,,0.00,44.00,VWS V14.00,2013-08-09 11:44:00,
2013-08-09 07:49:00,75.4,73.9,30.09,WSW,248,0.0,0.0,95,0.00,,,0.00,53.00,VWS V14.00,2013-08-09 11:49:00,
2013-08-09 07:54:00,75.4,73.9,30.09,SW,230,0.0,0.0,95,0.00,,,0.00,81.00,VWS V14.00,2013-08-09 11:54:00,
2013-08-09 07:59:00,75.6,74.1,30.09,WSW,243,0.0,0.0,95,0.00,,,0.00,70.00,VWS V14.00,2013-08-09 11:59:00,
2013-08-09 08:04:00,75.6,74.1,30.10,SSW,203,0.0,0.0,95,0.00,,OVC011,0.00,90.00,VWS V14.00,2013-08-09 12:04:00,
2013-08-09 08:09:00,75.8,74.3,30.10,SSW,202,0.0,1.0,95,0.00,,OVC011,0.00,84.00,VWS V14.00,2013-08-09 12:09:00,
2013-08-09 08:14:00,75.8,74.3,30.10,WSW,247,0.0,0.0,95,0.00,,OVC011,0.00,97.00,VWS V14.00,2013-08-09 12:14:00,
2013-08-09 08:19:00,75.8,73.9,30.11,WSW,244,0.0,0.0,94,0.00,,OVC011,0.00,67.00,VWS V14.00,2013-08-09 12:19:00,
2013-08-09 08:24:00,76.0,74.2,30.11,SSW,199,0.0,0.0,94,0.00,,OVC011,0.00,102.00,VWS V14.00,2013-08-09 12:24:00,
2013-08-09 08:29:00,76.0,74.2,30.11,SW,227,0.0,0.0,94,0.00,,OVC011,0.00,83.00,VWS V14.00,2013-08-09 12:29:00,
2013-08-09 08:34:00,76.0,74.2,30.11,SSW,213,0.0,0.0,94,0.00,,OVC011,0.00,102.00,VWS V14.00,2013-08-09 12:34:00,
2013-08-09 08:39:00,76.1,74.2,30.11,SW,226,0.0,0.0,94,0.00,,OVC011,0.00,130.00,VWS V14.00,2013-08-09 12:39:00,
2013-08-09 08:44:00,76.1,74.2,30.11,SSW,193,0.0,0.0,94,0.00,,OVC009,0.00,127.00,VWS V14.00,2013-08-09 12:44:00,
2013-08-09 08:49:00,76.3,74.1,30.11,South,188,0.0,0.0,93,0.00,,OVC009,0.00,155.00,VWS V14.00,2013-08-09 12:49:00,
2013-08-09 08:54:00,76.3,74.1,30.11,SW,236,0.0,0.0,93,0.00,,OVC009,0.00,257.00,VWS V14.00,2013-08-09 12:54:00,
2013-08-09 08:59:00,76.5,74.0,30.11,WSW,240,5.0,11.0,92,0.00,,OVC009,0.00,230.00,VWS V14.00,2013-08-09 12:59:00,
2013-08-09 09:04:00,76.8,74.3,30.11,SSW,202,0.0,0.0,92,0.00,,OVC011,0.00,278.00,VWS V14.00,2013-08-09 13:04:00,
2013-08-09 09:09:00,77.0,74.2,30.11,SW,234,0.0,7.0,91,0.00,,OVC011,0.00,153.00,VWS V14.00,2013-08-09 13:09:00,
2013-08-09 09:14:00,77.2,74.0,30.11,WSW,237,0.0,8.0,90,0.00,,OVC011,0.00,139.00,VWS V14.00,2013-08-09 13:14:00,
2013-08-09 09:19:00,77.2,73.7,30.11,SSW,205,6.0,8.0,89,0.00,,OVC011,0.00,188.00,VWS V14.00,2013-08-09 13:19:00,
2013-08-09 09:24:00,77.4,73.9,30.11,WSW,237,3.0,8.0,89,0.00,,OVC011,0.00,227.00,VWS V14.00,2013-08-09 13:24:00,
2013-08-09 09:29:00,77.7,73.9,30.11,WSW,237,0.0,10.0,88,0.00,,OVC011,0.00,273.00,VWS V14.00,2013-08-09 13:29:00,
2013-08-09 09:34:00,77.9,73.7,30.11,SW,233,7.0,8.0,87,0.00,,OVC011,0.00,172.00,VWS V14.00,2013-08-09 13:34:00,
2013-08-09 09:39:00,78.1,73.9,30.11,WSW,254,2.0,9.0,87,0.00,,OVC011,0.00,197.00,VWS V14.00,2013-08-09 13:39:00,
2013-08-09 09:44:00,78.1,73.6,30.11,SW,227,5.0,11.0,86,0.00,,OVC011,0.00,252.00,VWS V14.00,2013-08-09 13:44:00,
2013-08-09 09:49:00,78.5,74.0,30.12,SSW,205,3.0,11.0,86,0.00,,OVC011,0.00,338.00,VWS V14.00,2013-08-09 13:49:00,
2013-08-09 09:54:00,78.6,73.7,30.12,WSW,247,0.0,8.0,85,0.00,,OVC011,0.00,310.00,VWS V14.00,2013-08-09 13:54:00,
2013-08-09 09:59:00,79.0,74.1,30.12,SW,227,3.0,8.0,85,0.00,,OVC011,0.00,380.00,VWS V14.00,2013-08-09 13:59:00,
2013-08-09 10:04:00,79.2,73.9,30.12,WSW,240,1.0,11.0,84,0.00,,OVC015,0.00,297.00,VWS V14.00,2013-08-09 14:04:00,
2013-08-09 10:09:00,79.6,74.3,30.12,SW,230,6.0,11.0,84,0.00,,OVC015,0.00,276.00,VWS V14.00,2013-08-09 14:09:00,
2013-08-09 10:14:00,79.8,74.2,30.12,South,181,5.0,7.0,83,0.00,,OVC015,0.00,225.00,VWS V14.00,2013-08-09 14:14:00,
2013-08-09 10:19:00,79.8,73.8,30.12,WSW,256,1.0,7.0,82,0.00,,OVC015,0.00,262.00,VWS V14.00,2013-08-09 14:19:00,
2013-08-09 10:24:00,79.9,73.9,30.12,WSW,240,1.0,11.0,82,0.00,,OVC015,0.00,318.00,VWS V14.00,2013-08-09 14:24:00,
2013-08-09 10:29:00,80.1,74.5,30.12,SW,226,0.0,11.0,83,0.00,,OVC015,0.00,762.00,VWS V14.00,2013-08-09 14:29:00,
2013-08-09 10:34:00,80.5,74.9,30.13,SW,226,0.0,7.0,83,0.00,,OVC015,0.00,762.00,VWS V14.00,2013-08-09 14:34:00,
2013-08-09 10:39:00,80.7,74.3,30.13,SW,220,3.0,14.0,81,0.00,,OVC015,0.00,227.00,VWS V14.00,2013-08-09 14:39:00,
2013-08-09 10:44:00,80.9,74.5,30.13,SW,223,1.0,6.0,81,0.00,,OVC015,0.00,174.00,VWS V14.00,2013-08-09 14:44:00,
2013-08-09 10:49:00,80.9,74.2,30.13,WSW,247,5.0,9.0,80,0.00,,OVC015,0.00,127.00,VWS V14.00,2013-08-09 14:49:00,
2013-08-09 10:54:00,80.7,74.3,30.13,WSW,244,2.0,6.0,81,0.00,,OVC015,0.00,208.00,VWS V14.00,2013-08-09 14:54:00,
2013-08-09 10:59:00,80.7,74.7,30.13,WSW,239,3.0,6.0,82,0.00,,OVC015,0.00,229.00,VWS V14.00,2013-08-09 14:59:00,
2013-08-09 11:04:00,80.7,74.7,30.13,SW,220,6.0,7.0,82,0.00,,BKN024,0.00,575.00,VWS V14.00,2013-08-09 15:04:00,
2013-08-09 11:09:00,80.7,75.1,30.13,WSW,247,2.0,8.0,83,0.00,,BKN024,0.00,744.00,VWS V14.00,2013-08-09 15:09:00,
2013-08-09 11:14:00,81.1,75.1,30.13,SW,226,7.0,7.0,82,0.00,,BKN024,0.00,762.00,VWS V14.00,2013-08-09 15:14:00,
2013-08-09 11:19:00,81.6,74.5,30.13,SW,215,2.0,8.0,79,0.00,,BKN024,0.00,797.00,VWS V14.00,2013-08-09 15:19:00,
2013-08-09 11:24:00,82.0,74.1,30.13,WSW,239,7.0,8.0,77,0.00,,BKN024,0.00,829.00,VWS V14.00,2013-08-09 15:24:00,
2013-08-09 11:29:00,82.6,74.3,30.12,SW,229,0.0,8.0,76,0.00,,BKN024,0.00,795.00,VWS V14.00,2013-08-09 15:29:00,
2013-08-09 11:34:00,83.2,75.2,30.12,SSW,193,0.0,5.0,77,0.00,,BKN024,0.00,954.00,VWS V14.00,2013-08-09 15:34:00,
2013-08-09 11:40:00,83.8,75.0,30.12,SW,232,2.0,5.0,75,0.00,,BKN024,0.00,215.00,VWS V14.00,2013-08-09 15:40:00,
2013-08-09 11:45:00,84.0,74.8,30.12,WSW,237,4.0,4.0,74,0.00,,BKN024,0.00,91.00,VWS V14.00,2013-08-09 15:45:00,
2013-08-09 11:50:00,84.0,74.8,30.12,WSW,241,0.0,6.0,74,0.00,,BKN024,0.00,127.00,VWS V14.00,2013-08-09 15:50:00,
2013-08-09 11:55:00,84.0,75.2,30.12,SW,224,2.0,5.0,75,0.00,,BKN024,0.00,878.00,VWS V14.00,2013-08-09 15:55:00,
2013-08-09 12:00:00,84.0,74.4,30.11,SSW,213,6.0,10.0,73,0.00,,BKN024,0.00,971.00,VWS V14.00,2013-08-09 16:00:00,
2013-08-09 12:05:00,84.5,74.5,30.11,SW,226,3.0,8.0,72,0.00,,BKN035,0.00,232.00,VWS V14.00,2013-08-09 16:05:00,
2013-08-09 12:10:00,84.7,74.3,30.11,SSW,199,0.0,8.0,71,0.00,,BKN035,0.00,324.00,VWS V14.00,2013-08-09 16:10:00,
2013-08-09 12:15:00,85.7,75.2,30.11,SW,226,5.0,5.0,71,0.00,,BKN035,0.00,1022.00,VWS V14.00,2013-08-09 16:15:00,
2013-08-09 12:20:00,85.9,74.1,30.11,SW,224,1.0,6.0,68,0.00,,BKN035,0.00,239.00,VWS V14.00,2013-08-09 16:20:00,
2013-08-09 12:25:00,85.9,73.7,30.11,WSW,248,7.0,10.0,67,0.00,,BKN035,0.00,982.00,VWS V14.00,2013-08-09 16:25:00,
2013-08-09 12:30:00,85.9,74.1,30.10,WSW,247,2.0,10.0,68,0.00,,BKN035,0.00,1038.00,VWS V14.00,2013-08-09 16:30:00,
2013-08-09 12:35:00,86.3,74.5,30.10,WSW,251,6.0,8.0,68,0.00,,SCT035,0.00,274.00,VWS V14.00,2013-08-09 16:35:00,
2013-08-09 12:40:00,86.3,74.5,30.10,WNW,284,0.0,11.0,68,0.00,,SCT035,0.00,278.00,VWS V14.00,2013-08-09 16:40:00,
2013-08-09 12:45:00,86.3,74.1,30.10,SSW,210,1.0,6.0,67,0.00,,SCT035,0.00,208.00,VWS V14.00,2013-08-09 16:45:00,
2013-08-09 12:50:00,86.3,74.5,30.10,WSW,239,6.0,7.0,68,0.00,,SCT035,0.00,957.00,VWS V14.00,2013-08-09 16:50:00,
2013-08-09 12:55:00,86.5,73.3,30.10,WSW,246,0.0,7.0,65,0.00,,SCT035,0.00,992.00,VWS V14.00,2013-08-09 16:55:00,
2013-08-09 13:00:00,87.2,74.5,30.10,SW,222,0.0,7.0,66,0.00,,SCT035,0.00,1008.00,VWS V14.00,2013-08-09 17:00:00,
2013-08-09 13:05:00,87.4,73.7,30.10,SW,234,0.0,6.0,64,0.00,,SCT025,0.00,234.00,VWS V14.00,2013-08-09 17:05:00,
2013-08-09 13:10:00,87.4,74.2,30.10,SW,233,1.0,6.0,65,0.00,,SCT025,0.00,1033.00,VWS V14.00,2013-08-09 17:10:00,
2013-08-09 13:15:00,87.8,74.1,30.09,WSW,254,2.0,6.0,64,0.00,,SCT025,0.00,297.00,VWS V14.00,2013-08-09 17:15:00,
2013-08-09 13:20:00,87.8,74.1,30.09,SW,232,6.0,8.0,64,0.00,,SCT025,0.00,1005.00,VWS V14.00,2013-08-09 17:20:00,
2013-08-09 13:25:00,88.2,74.5,30.09,WSW,250,6.0,10.0,64,0.00,,SCT025,0.00,1040.00,VWS V14.00,2013-08-09 17:25:00,
2013-08-09 13:30:00,88.6,74.9,30.09,South,184,0.0,10.0,64,0.00,,SCT025,0.00,1059.00,VWS V14.00,2013-08-09 17:30:00,
2013-08-09 13:35:00,89.3,74.1,30.09,SW,236,2.0,9.0,61,0.00,,SCT025,0.00,1133.00,VWS V14.00,2013-08-09 17:35:00,
2013-08-09 13:40:00,89.3,74.1,30.09,WSW,240,4.0,11.0,61,0.00,,SCT025,0.00,1133.00,VWS V14.00,2013-08-09 17:40:00,
2013-08-09 13:45:00,89.3,74.1,30.08,WSW,247,2.0,6.0,61,0.00,,SCT025,0.00,315.00,VWS V14.00,2013-08-09 17:45:00,
2013-08-09 13:50:00,89.3,74.6,30.08,SW,229,6.0,6.0,62,0.00,,SCT025,0.00,229.00,VWS V14.00,2013-08-09 17:50:00,
2013-08-09 13:55:00,89.0,74.8,30.08,SW,226,5.0,7.0,63,0.00,,SCT025,0.00,167.00,VWS V14.00,2013-08-09 17:55:00,
2013-08-09 14:00:00,88.4,74.7,30.08,SW,224,2.0,7.0,64,0.00,,SCT025,0.00,229.00,VWS V14.00,2013-08-09 18:00:00,
2013-08-09 14:05:00,88.0,75.2,30.08,SW,217,0.0,6.0,66,0.00,,SCT047,0.00,238.00,VWS V14.00,2013-08-09 18:05:00,
2013-08-09 14:10:00,87.8,75.5,30.08,SW,234,6.0,6.0,67,0.00,,SCT047,0.00,250.00,VWS V14.00,2013-08-09 18:10:00,
2013-08-09 14:15:00,87.8,75.0,30.08,SW,227,3.0,7.0,66,0.00,,SCT047,0.00,278.00,VWS V14.00,2013-08-09 18:15:00,
2013-08-09 14:20:00,88.2,76.3,30.08,SSW,212,1.0,7.0,68,0.00,,SCT047,0.00,980.00,VWS V14.00,2013-08-09 18:20:00,
2013-08-09 14:25:00,88.8,76.4,30.08,SSW,208,1.0,6.0,67,0.00,,SCT047,0.00,918.00,VWS V14.00,2013-08-09 18:25:00,
2013-08-09 14:30:00,89.5,75.2,30.07,SW,217,6.0,10.0,63,0.00,,SCT047,0.00,890.00,VWS V14.00,2013-08-09 18:30:00,
2013-08-09 14:35:00,89.7,75.4,30.07,West,261,5.0,10.0,63,0.00,,SCT047,0.00,871.00,VWS V14.00,2013-08-09 18:35:00,
2013-08-09 14:40:00,90.3,75.5,30.07,SSW,208,2.0,10.0,62,0.00,,SCT047,0.00,862.00,VWS V14.00,2013-08-09 18:40:00,
2013-08-09 14:45:00,90.7,74.4,30.07,SSW,209,5.0,10.0,59,0.00,,SCT047,0.00,874.00,VWS V14.00,2013-08-09 18:45:00,
2013-08-09 14:50:00,91.0,74.7,30.07,South,188,1.0,10.0,59,0.00,,SCT047,0.00,644.00,VWS V14.00,2013-08-09 18:50:00,
2013-08-09 14:55:00,91.4,75.6,30.07,SW,236,3.0,5.0,60,0.00,,SCT047,0.00,948.00,VWS V14.00,2013-08-09 18:55:00,
2013-08-09 15:00:00,91.8,74.4,30.07,SW,222,1.0,7.0,57,0.00,,SCT047,0.00,246.00,VWS V14.00,2013-08-09 19:00:00,
2013-08-09 15:05:00,92.1,74.7,30.07,WSW,237,0.0,5.0,57,0.00,,BKN047,0.00,415.00,VWS V14.00,2013-08-09 19:05:00,
2013-08-09 15:10:00,91.6,73.7,30.07,WSW,246,0.0,9.0,56,0.00,,BKN047,0.00,282.00,VWS V14.00,2013-08-09 19:10:00,
2013-08-09 15:15:00,91.4,74.0,30.06,SSW,193,0.0,5.0,57,0.00,,BKN047,0.00,248.00,VWS V14.00,2013-08-09 19:15:00,
2013-08-09 15:20:00,91.6,73.7,30.06,WSW,241,0.0,8.0,56,0.00,,BKN047,0.00,908.00,VWS V14.00,2013-08-09 19:20:00,
2013-08-09 15:25:00,91.8,74.4,30.06,SW,232,5.0,9.0,57,0.00,,BKN047,0.00,262.00,VWS V14.00,2013-08-09 19:25:00,
2013-08-09 15:30:00,91.2,74.4,30.06,South,185,1.0,9.0,58,0.00,,BKN047,0.00,167.00,VWS V14.00,2013-08-09 19:30:00,
2013-08-09 15:35:00,90.7,74.4,30.06,WSW,250,2.0,5.0,59,0.00,,BKN047,0.00,216.00,VWS V14.00,2013-08-09 19:35:00,
2013-08-09 15:40:00,90.7,74.9,30.06,ESE,114,0.0,5.0,60,0.00,,BKN047,0.00,871.00,VWS V14.00,2013-08-09 19:40:00,
2013-08-09 15:45:00,91.0,74.2,30.06,SSW,192,0.0,7.0,58,0.00,,BKN047,0.00,811.00,VWS V14.00,2013-08-09 19:45:00,
2013-08-09 15:50:00,90.7,74.4,30.06,SSW,203,0.0,12.0,59,0.00,,BKN047,0.00,179.00,VWS V14.00,2013-08-09 19:50:00,
2013-08-09 15:55:00,90.7,74.9,30.06,SW,216,1.0,5.0,60,0.00,,BKN047,0.00,267.00,VWS V14.00,2013-08-09 19:55:00,
2013-08-09 16:00:00,91.0,75.2,30.05,SSW,212,1.0,6.0,60,0.00,,BKN047,0.00,808.00,VWS V14.00,2013-08-09 20:00:00,
2013-08-09 16:05:00,91.6,75.2,30.05,SSW,203,0.0,8.0,59,0.00,,BKN047,0.00,802.00,VWS V14.00,2013-08-09 20:05:00,
2013-08-09 16:10:00,92.1,74.7,30.05,SSW,210,0.0,8.0,57,0.00,,BKN047,0.00,688.00,VWS V14.00,2013-08-09 20:10:00,
2013-08-09 16:15:00,92.5,74.5,30.05,South,176,0.0,5.0,56,0.00,,BKN047,0.00,663.00,VWS V14.00,2013-08-09 20:15:00,
2013-08-09 16:20:00,92.5,74.5,30.05,SW,220,6.0,6.0,56,0.00,,BKN047,0.00,162.00,VWS V14.00,2013-08-09 20:20:00,
2013-08-09 16:25:00,92.1,74.2,30.05,SW,223,2.0,5.0,56,0.00,,BKN047,0.00,148.00,VWS V14.00,2013-08-09 20:25:00,
2013-08-09 16:30:00,91.8,74.9,30.04,SSW,212,1.0,5.0,58,0.00,,BKN047,0.00,676.00,VWS V14.00,2013-08-09 20:30:00,
2013-08-09 16:35:00,91.4,74.6,30.04,WSW,241,0.0,7.0,58,0.00,,BKN047,0.00,230.00,VWS V14.00,2013-08-09 20:35:00,
2013-08-09 16:40:00,91.2,74.4,30.04,SSW,203,0.0,7.0,58,0.00,,BKN047,0.00,187.00,VWS V14.00,2013-08-09 20:40:00,
2013-08-09 16:45:00,90.7,74.4,30.03,WSW,256,6.0,7.0,59,0.00,,BKN047,0.00,139.00,VWS V14.00,2013-08-09 20:45:00,
2013-08-09 16:50:00,90.3,74.0,30.03,SW,227,0.0,7.0,59,0.00,,BKN047,0.00,148.00,VWS V14.00,2013-08-09 20:50:00,
2013-08-09 16:55:00,89.9,74.2,30.03,SW,232,0.0,6.0,60,0.00,,BKN047,0.00,123.00,VWS V14.00,2013-08-09 20:55:00,
2013-08-09 17:00:00,89.3,75.1,30.04,SW,232,0.0,6.0,63,0.00,,BKN047,0.00,95.00,VWS V14.00,2013-08-09 21:00:00,
2013-08-09 17:05:00,88.8,74.6,30.04,SW,232,0.0,0.0,63,0.00,,SCT060,0.00,72.00,VWS V14.00,2013-08-09 21:05:00,
2013-08-09 17:10:00,88.6,74.9,30.04,SW,232,0.0,0.0,64,0.00,,SCT060,0.00,74.00,VWS V14.00,2013-08-09 21:10:00,
2013-08-09 17:15:00,88.2,75.0,30.04,SSW,213,2.0,2.0,65,0.00,,SCT060,0.00,102.00,VWS V14.00,2013-08-09 21:15:00,
2013-08-09 17:20:00,87.6,75.7,30.04,WSW,237,0.0,4.0,68,0.00,,SCT060,0.00,141.00,VWS V14.00,2013-08-09 21:20:00,
2013-08-09 17:25:00,87.2,76.2,30.04,WSW,237,0.0,0.0,70,0.00,,SCT060,0.00,185.00,VWS V14.00,2013-08-09 21:25:00,
2013-08-09 17:30:00,87.0,76.0,30.04,WSW,237,0.0,0.0,70,0.00,,SCT060,0.00,470.00,VWS V14.00,2013-08-09 21:30:00,
2013-08-09 17:35:00,87.0,76.5,30.04,WSW,237,0.0,0.0,71,0.00,,SCT060,0.00,174.00,VWS V14.00,2013-08-09 21:35:00,
2013-08-09 17:40:00,87.0,76.0,30.04,WSW,237,0.0,0.0,70,0.00,,SCT060,0.00,162.00,VWS V14.00,2013-08-09 21:40:00,
2013-08-09 17:45:00,87.0,76.0,30.04,WSW,237,0.0,0.0,70,0.00,,SCT060,0.00,292.00,VWS V14.00,2013-08-09 21:45:00,
2013-08-09 17:50:00,87.0,76.0,30.04,WSW,237,0.0,0.0,70,0.00,,SCT060,0.00,236.00,VWS V14.00,2013-08-09 21:50:00,
2013-08-09 17:55:00,87.2,76.2,30.04,WSW,237,0.0,0.0,70,0.00,,SCT060,0.00,248.00,VWS V14.00,2013-08-09 21:55:00,
2013-08-09 18:00:00,87.4,76.0,30.04,WSW,237,0.0,0.0,69,0.00,,SCT060,0.00,257.00,VWS V14.00,2013-08-09 22:00:00,
2013-08-09 18:05:00,87.4,76.4,30.04,WSW,237,0.0,0.0,70,0.00,,SCT060,0.00,253.00,VWS V14.00,2013-08-09 22:05:00,
2013-08-09 18:10:00,87.6,76.2,30.04,WSW,237,0.0,0.0,69,0.00,,SCT060,0.00,215.00,VWS V14.00,2013-08-09 22:10:00,
2013-08-09 18:15:00,87.8,76.8,30.04,WSW,237,0.0,0.0,70,0.00,,SCT060,0.00,171.00,VWS V14.00,2013-08-09 22:15:00,
2013-08-09 18:20:00,87.8,76.8,30.04,WSW,237,0.0,0.0,70,0.00,,SCT060,0.00,146.00,VWS V14.00,2013-08-09 22:20:00,
2013-08-09 18:25:00,87.8,76.8,30.04,WSW,237,0.0,0.0,70,0.00,,SCT060,0.00,113.00,VWS V14.00,2013-08-09 22:25:00,
2013-08-09 18:30:00,87.6,77.0,30.04,WSW,237,0.0,0.0,71,0.00,,SCT060,0.00,118.00,VWS V14.00,2013-08-09 22:30:00,
2013-08-09 18:35:00,87.4,77.3,30.04,WSW,237,0.0,0.0,72,0.00,,SCT060,0.00,113.00,VWS V14.00,2013-08-09 22:35:00,
2013-08-09 18:40:00,87.2,77.5,30.04,SW,219,0.0,0.0,73,0.00,,SCT060,0.00,106.00,VWS V14.00,2013-08-09 22:40:00,
2013-08-09 18:45:00,87.0,76.9,30.04,SW,219,0.0,0.0,72,0.00,,SCT060,0.00,100.00,VWS V14.00,2013-08-09 22:45:00,
2013-08-09 18:50:00,86.5,76.4,30.04,SW,219,0.0,0.0,72,0.00,,SCT060,0.00,95.00,VWS V14.00,2013-08-09 22:50:00,
2013-08-09 18:55:00,86.3,76.2,30.04,SW,219,0.0,0.0,72,0.00,,SCT060,0.00,88.00,VWS V14.00,2013-08-09 22:55:00,
2013-08-09 19:00:00,86.3,76.6,30.03,SW,219,0.0,0.0,73,0.00,,SCT060,0.00,79.00,VWS V14.00,2013-08-09 23:00:00,
2013-08-09 19:05:00,85.9,76.7,30.03,SW,219,0.0,0.0,74,0.00,,SCT043,0.00,72.00,VWS V14.00,2013-08-09 23:05:00,
2013-08-09 19:10:00,85.7,76.9,30.03,SW,219,0.0,0.0,75,0.00,,SCT043,0.00,65.00,VWS V14.00,2013-08-09 23:10:00,
2013-08-09 19:15:00,85.5,76.7,30.04,SW,219,0.0,0.0,75,0.00,,SCT043,0.00,60.00,VWS V14.00,2013-08-09 23:15:00,
2013-08-09 19:20:00,85.1,76.7,30.04,SW,219,0.0,0.0,76,0.00,,SCT043,0.00,56.00,VWS V14.00,2013-08-09 23:20:00,
2013-08-09 19:25:00,84.7,75.9,30.04,SW,219,0.0,0.0,75,0.00,,SCT043,0.00,49.00,VWS V14.00,2013-08-09 23:25:00,
2013-08-09 19:30:00,84.5,76.1,30.04,SW,219,0.0,0.0,76,0.00,,SCT043,0.00,40.00,VWS V14.00,2013-08-09 23:30:00,
2013-08-09 19:35:00,84.3,75.9,30.04,SW,219,0.0,0.0,76,0.00,,SCT043,0.00,35.00,VWS V14.00,2013-08-09 23:35:00,
2013-08-09 19:40:00,84.1,76.1,30.04,SW,219,0.0,0.0,77,0.00,,SCT043,0.00,30.00,VWS V14.00,2013-08-09 23:40:00,
2013-08-09 19:45:00,84.0,76.4,30.05,SW,219,0.0,0.0,78,0.00,,SCT043,0.00,25.00,VWS V14.00,2013-08-09 23:45:00,
2013-08-09 19:50:00,83.6,76.4,30.05,SW,219,0.0,0.0,79,0.00,,SCT043,0.00,21.00,VWS V14.00,2013-08-09 23:50:00,
2013-08-09 19:55:00,83.4,76.6,30.05,SW,219,0.0,0.0,80,0.00,,SCT043,0.00,18.00,VWS V14.00,2013-08-09 23:55:00,
2013-08-09 20:00:00,83.2,76.4,30.05,SW,219,0.0,0.0,80,0.00,,SCT060,0.00,14.00,VWS V14.00,2013-08-10 00:00:00,
2013-08-09 20:05:00,83.0,76.6,30.05,SW,219,0.0,0.0,81,0.00,,SCT060,0.00,11.00,VWS V14.00,2013-08-10 00:05:00,
2013-08-09 20:10:00,82.8,76.4,30.05,SW,219,0.0,0.0,81,0.00,,SCT060,0.00,7.00,VWS V14.00,2013-08-10 00:10:00,
2013-08-09 20:15:00,82.6,76.6,30.06,SW,219,0.0,0.0,82,0.00,,SCT060,0.00,5.00,VWS V14.00,2013-08-10 00:15:00,
2013-08-09 20:20:00,82.4,76.4,30.06,SW,219,0.0,0.0,82,0.00,,SCT060,0.00,0.00,VWS V14.00,2013-08-10 00:20:00,
2013-08-09 20:25:00,82.2,76.5,30.06,SW,219,0.0,0.0,83,0.00,,SCT060,0.00,0.00,VWS V14.00,2013-08-10 00:25:00,
2013-08-09 20:30:00,82.0,76.3,30.07,SW,219,0.0,0.0,83,0.00,,SCT060,0.00,0.00,VWS V14.00,2013-08-10 00:30:00,
2013-08-09 20:35:00,81.6,76.3,30.07,SW,219,0.0,0.0,84,0.00,,SCT060,0.00,0.00,VWS V14.00,2013-08-10 00:35:00,
2013-08-09 20:40:00,81.6,76.3,30.07,SW,219,0.0,0.0,84,0.00,,SCT060,0.00,0.00,VWS V14.00,2013-08-10 00:40:00,
2013-08-09 20:45:00,81.4,76.5,30.08,SW,219,0.0,0.0,85,0.00,,SCT060,0.00,0.00,VWS V14.00,2013-08-10 00:45:00,
2013-08-09 20:50:00,81.2,76.3,30.08,SW,219,0.0,0.0,85,0.00,,SCT060,0.00,0.00,VWS V14.00,2013-08-10 00:50:00,
2013-08-09 20:55:00,81.1,76.5,30.08,SW,219,0.0,0.0,86,0.00,,SCT060,0.00,0.00,VWS V14.00,2013-08-10 00:55:00,
2013-08-09 21:00:00,80.9,76.3,30.08,SW,219,0.0,0.0,86,0.00,,FEW048,0.00,0.00,VWS V14.00,2013-08-10 01:00:00,
2013-08-09 21:05:00,80.7,76.1,30.08,SW,219,0.0,0.0,86,0.00,,FEW048,0.00,0.00,VWS V14.00,2013-08-10 01:05:00,
2013-08-09 21:10:00,80.5,75.9,30.08,SW,219,0.0,0.0,86,0.00,,FEW048,0.00,0.00,VWS V14.00,2013-08-10 01:10:00,
2013-08-09 21:15:00,80.5,75.6,30.08,SW,219,0.0,0.0,85,0.00,,FEW048,0.00,0.00,VWS V14.00,2013-08-10 01:15:00,
2013-08-09 21:20:00,80.3,75.4,30.08,SW,219,0.0,0.0,85,0.00,,FEW048,0.00,0.00,VWS V14.00,2013-08-10 01:20:00,
2013-08-09 21:25:00,80.3,75.4,30.08,SW,219,0.0,0.0,85,0.00,,FEW048,0.00,0.00,VWS V14.00,2013-08-10 01:25:00,
2013-08-09 21:30:00,80.1,75.5,30.09,SW,219,0.0,0.0,86,0.00,,FEW048,0.00,0.00,VWS V14.00,2013-08-10 01:30:00,
2013-08-09 21:35:00,79.9,75.3,30.09,SW,219,0.0,0.0,86,0.00,,FEW048,0.00,0.00,VWS V14.00,2013-08-10 01:35:00,
2013-08-09 21:40:00,79.8,75.2,30.09,SW,219,0.0,0.0,86,0.00,,FEW048,0.00,0.00,VWS V14.00,2013-08-10 01:40:00,
2013-08-09 21:45:00,79.6,75.4,30.09,SW,219,0.0,0.0,87,0.00,,FEW048,0.00,0.00,VWS V14.00,2013-08-10 01:45:00,
2013-08-09 21:50:00,79.4,75.2,30.09,SW,219,0.0,0.0,87,0.00,,FEW048,0.00,0.00,VWS V14.00,2013-08-10 01:50:00,
2013-08-09 21:55:00,79.4,75.2,30.09,SW,219,0.0,0.0,87,0.00,,FEW048,0.00,0.00,VWS V14.00,2013-08-10 01:55:00,
2013-08-09 22:00:00,79.2,75.0,30.10,SW,219,0.0,0.0,87,0.00,,CLR,0.00,0.00,VWS V14.00,2013-08-10 02:00:00,
2013-08-09 22:05:00,79.2,75.0,30.10,SW,219,0.0,0.0,87,0.00,,CLR,0.00,0.00,VWS V14.00,2013-08-10 02:05:00,
2013-08-09 22:11:00,79.0,74.8,30.10,SW,219,0.0,0.0,87,0.00,,CLR,0.00,0.00,VWS V14.00,2013-08-10 02:11:00,
2013-08-09 22:16:00,79.0,74.8,30.10,SW,219,0.0,0.0,87,0.00,,CLR,0.00,0.00,VWS V14.00,2013-08-10 02:16:00,
2013-08-09 22:21:00,78.8,74.6,30.10,SW,219,0.0,0.0,87,0.00,,CLR,0.00,0.00,VWS V14.00,2013-08-10 02:21:00,
2013-08-09 22:26:00,78.6,74.4,30.10,SW,224,0.0,2.0,87,0.00,,CLR,0.00,0.00,VWS V14.00,2013-08-10 02:26:00,
2013-08-09 22:31:00,78.6,74.4,30.11,SW,215,1.0,2.0,87,0.00,,CLR,0.00,0.00,VWS V14.00,2013-08-10 02:31:00,
2013-08-09 22:36:00,78.6,74.4,30.11,SW,226,6.0,6.0,87,0.00,,CLR,0.00,0.00,VWS V14.00,2013-08-10 02:36:00,
2013-08-09 22:41:00,78.6,74.1,30.11,SW,217,0.0,0.0,86,0.00,,CLR,0.00,0.00,VWS V14.00,2013-08-10 02:41:00,
2013-08-09 22:46:00,78.8,73.9,30.11,SW,234,0.0,5.0,85,0.00,,CLR,0.00,0.00,VWS V14.00,2013-08-10 02:46:00,
2013-08-09 22:51:00,79.0,73.8,30.11,SW,216,0.0,3.0,84,0.00,,CLR,0.00,0.00,VWS V14.00,2013-08-10 02:51:00,
2013-08-09 22:56:00,79.2,73.9,30.11,SSW,210,0.0,3.0,84,0.00,,CLR,0.00,0.00,VWS V14.00,2013-08-10 02:56:00,
2013-08-09 23:01:00,79.2,73.6,30.11,SW,215,0.0,0.0,83,0.00,,OVC070,0.00,0.00,VWS V14.00,2013-08-10 03:01:00,
2013-08-09 23:06:00,79.4,73.8,30.11,SSW,192,0.0,3.0,83,0.00,,OVC070,0.00,0.00,VWS V14.00,2013-08-10 03:06:00,
2013-08-09 23:11:00,79.4,73.8,30.11,SSW,195,0.0,0.0,83,0.00,,OVC070,0.00,0.00,VWS V14.00,2013-08-10 03:11:00,
2013-08-09 23:16:00,79.4,73.8,30.11,SSW,195,0.0,0.0,83,0.00,,OVC070,0.00,0.00,VWS V14.00,2013-08-10 03:16:00,
2013-08-09 23:21:00,79.4,73.8,30.11,SW,220,3.0,3.0,83,0.00,,OVC070,0.00,0.00,VWS V14.00,2013-08-10 03:21:00,
2013-08-09 23:26:00,79.4,73.8,30.11,SSW,192,0.0,4.0,83,0.00,,OVC070,0.00,0.00,VWS V14.00,2013-08-10 03:26:00,
2013-08-09 23:31:00,79.4,73.8,30.12,SW,230,2.0,2.0,83,0.00,,OVC070,0.00,0.00,VWS V14.00,2013-08-10 03:31:00,
2013-08-09 23:36:00,79.2,73.6,30.12,SW,223,1.0,6.0,83,0.00,,OVC070,0.00,0.00,VWS V14.00,2013-08-10 03:36:00,
2013-08-09 23:41:00,79.2,73.6,30.12,SW,226,3.0,3.0,83,0.00,,OVC070,0.00,0.00,VWS V14.00,2013-08-10 03:41:00,
2013-08-09 23:46:00,79.2,73.6,30.12,SSW,198,3.0,7.0,83,0.00,,OVC070,0.00,0.00,VWS V14.00,2013-08-10 03:46:00,
2013-08-09 23:51:00,79.2,73.2,30.12,SW,232,2.0,4.0,82,0.00,,OVC070,0.00,0.00,VWS V14.00,2013-08-10 03:51:00,
2013-08-09 23:56:00,79.0,73.0,30.12,SSW,213,1.0,8.0,82,0.00,,OVC070,0.00,0.00,VWS V14.00,2013-08-10 03:56:00,